[[{"header":{"parameterUnit":"m.s-1","parameterCategory":1,"la1":30.2991,"la2":30.254,"lo1":-89.0895,"lo2":-89.0444,"dy":0.0017,"dx":0.0017,"nx":28,"ny":28,"refTime":"2025-07-15T21:00:00:Z","depth":0,"parameterNumber":2,"parameterNumberName":"U-component_of_WINDS"},"data":[0,0,0,0,0,0,0,0,0,0,0,0,0,0,0,0,0,0,0,0,0,0,0,0,0,0,0,0,0,0,0,0,0,0,0,0,0,0,0,0,0,0,0,0,0,0,0,0,0,0,0,0,0,0,0,0,0,0,-1.5402,-1.5404,0,-1.5527,-1.5528,-1.5529,-1.5587,-1.5587,-1.5587,-1.5587,-1.5708,-1.5711,-1.5714,0,0,0,0,0,0,0,0,0,0,0,0,0,-1.5209,-1.5212,-1.5402,-1.5404,-1.5406,-1.5526,-1.5528,-1.553,-1.5587,-1.5587,-1.5587,-1.5587,-1.5707,-1.571,-1.5714,0,0,0,0,0,0,0,0,0,0,0,0,0,-1.5309,-1.5213,-1.5402,-1.5449,-1.5454,-1.5526,-1.5528,-1.553,-1.5587,-1.5587,-1.5587,-1.5587,-1.5705,-1.571,-1.5715,-1.5748,0,0,-1.573,-1.5732,0,0,0,0,0,0,0,0,-1.5303,-1.5316,-1.544,-1.5446,-1.5452,-1.5541,-1.5504,-1.5603,-1.5587,-1.5536,-1.5587,-1.5587,-1.5652,-1.5661,-1.5685,-1.5754,-1.5759,-1.5731,-1.5733,-1.5736,-1.5737,0,0,0,0,0,0,0,-1.5296,-1.5311,-1.5451,-1.5442,-1.5449,-1.5462,-1.5476,-1.5523,-1.5593,-1.5541,-1.5545,-1.556,-1.5655,-1.568,-1.5688,-1.576,-1.573,-1.5735,-1.5738,-1.574,-1.5863,-1.5863,0,0,0,0,0,0,-1.5282,-1.5305,-1.5447,-1.5455,-1.5376,-1.5465,-1.5481,-1.5513,-1.5593,-1.5605,-1.556,-1.5562,-1.5671,-1.5682,-1.5692,-1.5737,-1.5736,-1.574,-1.5743,-1.5862,-1.5863,-1.5863,0,0,0,0,0,0,-1.5278,-1.5295,-1.5442,-1.5381,-1.5401,-1.5469,-1.5504,-1.5515,-1.554,-1.5607,-1.5619,-1.5572,-1.5672,-1.5685,-1.5734,-1.5742,-1.5742,-1.5747,-1.5862,-1.5862,-1.5863,-1.5825,0,0,0,0,0,0,-1.5272,-1.5293,-1.5307,-1.5381,-1.5404,-1.5484,-1.5504,-1.5518,-1.5549,-1.5553,-1.5622,-1.5634,-1.5673,-1.5726,-1.5739,-1.5748,-1.5751,-1.5861,-1.5862,-1.5863,-1.5826,-1.5824,-1.5823,0,0,0,0,0,-1.5265,-1.529,-1.5308,-1.5325,-1.5424,-1.5484,-1.5497,-1.5543,-1.555,-1.5564,-1.5607,-1.5631,-1.5739,-1.5731,-1.5746,-1.5757,-1.5861,-1.5862,-1.5863,-1.5827,-1.5824,-1.5823,0,0,0,0,0,0,-1.5213,-1.5301,-1.5321,-1.5371,-1.542,-1.5494,-1.5513,-1.5539,-1.5586,-1.5587,-1.5641,-1.5656,-1.57,-1.5733,-1.5723,-1.5793,-1.5802,-1.5806,-1.577,-1.5768,-1.5767,-1.5758,-1.5755,0,0,0,0,0,-1.5208,-1.5251,-1.5325,-1.5362,-1.5385,-1.5445,-1.5473,-1.5505,-1.5556,-1.5577,-1.5623,-1.5671,-1.5715,-1.5744,-1.5788,-1.5831,-1.5846,-1.5845,-1.5844,-1.5842,-1.5845,-1.587,-1.587,-1.5865,-1.5865,-1.5865,0,0,-1.5196,-1.525,-1.5274,-1.5353,-1.5394,-1.5436,-1.5462,-1.5505,-1.5537,-1.5582,-1.5632,-1.5668,-1.5724,-1.577,-1.5793,-1.5799,-1.5849,-1.5843,-1.5841,-1.5845,-1.587,-1.5871,-1.5871,-1.5866,-1.5865,-1.5865,0,0,-1.5198,-1.5243,-1.5279,-1.5321,-1.5384,-1.5424,-1.5432,-1.5503,-1.5529,-1.558,-1.5615,-1.5652,-1.5728,-1.5767,-1.5796,-1.5813,-1.5837,-1.5826,-1.5817,-1.5841,-1.5841,-1.5842,-1.5848,-1.5849,-1.5828,-1.5828,-1.5828,0,-1.5176,-1.5243,-1.5294,-1.5336,-1.5369,-1.5415,-1.5451,-1.5488,-1.5562,-1.5583,-1.559,-1.5686,-1.5727,-1.5783,-1.5787,-1.581,-1.582,-1.5818,-1.5837,-1.5839,-1.584,-1.5846,-1.5848,-1.5826,-1.5826,-1.5826,-1.5827,0,-1.5212,-1.5258,-1.5279,-1.5352,-1.5388,-1.5426,-1.5482,-1.5511,-1.5539,-1.5578,-1.5628,-1.568,-1.5736,-1.5751,-1.5778,-1.5811,-1.5813,-1.5828,-1.5838,-1.5838,-1.5845,-1.5847,-1.5824,-1.5824,-1.5825,-1.5825,0,0,-1.5184,-1.5286,-1.5293,-1.5327,-1.54,-1.5435,-1.5475,-1.5533,-1.5557,-1.5605,-1.564,-1.5703,-1.5718,-1.5751,-1.5783,-1.5804,-1.5814,-1.5816,-1.5818,-1.5814,-1.5853,-1.5841,-1.5843,-1.583,-1.5831,-1.5831,-1.5848,0,-1.5196,-1.5273,-1.532,-1.5377,-1.542,-1.5464,-1.5499,-1.5546,-1.5583,-1.5623,-1.5662,-1.5707,-1.5723,-1.5743,-1.5766,-1.5808,-1.5822,-1.5807,-1.5861,-1.5863,-1.5847,-1.5847,-1.5835,-1.5849,-1.5851,-1.5851,-1.5852,0,-1.5221,-1.5271,-1.5333,-1.5403,-1.5422,-1.5453,-1.5509,-1.5547,-1.5602,-1.5627,-1.5665,-1.5697,-1.574,-1.5746,-1.5805,-1.5794,-1.5818,-1.5842,-1.5844,-1.5851,-1.5857,-1.5854,-1.5854,-1.5856,-1.5856,-1.5856,-1.5856,0,-1.5194,-1.5278,-1.5326,-1.5353,-1.5435,-1.5456,-1.549,-1.5545,-1.5577,-1.5625,-1.5645,-1.5697,-1.5725,-1.5763,-1.5808,-1.5809,-1.5862,-1.5872,-1.5883,-1.5882,-1.5892,-1.5891,-1.5896,-1.5907,-1.5907,-1.5907,-1.5907,0,-1.5203,-1.5239,-1.5316,-1.5345,-1.5387,-1.544,-1.5478,-1.5516,-1.5564,-1.5601,-1.5641,-1.5673,-1.5731,-1.577,-1.5805,-1.5848,-1.586,-1.588,-1.5889,-1.5877,-1.5875,-1.5894,-1.5895,-1.5908,-1.5908,-1.5908,-1.5908,0,-1.5181,-1.5234,-1.5289,-1.5363,-1.5382,-1.541,-1.5472,-1.5501,-1.554,-1.5585,-1.5599,-1.5659,-1.5708,-1.5756,-1.582,-1.5844,-1.5886,-1.5898,-1.5869,-1.5874,-1.5882,-1.588,-1.59,-1.5905,-1.5912,-1.5912,-1.5912,0,-1.5183,-1.5213,-1.529,-1.5319,-1.5353,-1.5398,-1.5431,-1.5484,-1.5516,-1.558,-1.5602,-1.5653,-1.5698,-1.5772,-1.5821,-1.587,-1.5884,-1.5887,-1.5891,-1.5878,-1.5884,-1.5882,-1.5885,-1.5885,-1.5885,-1.5885,-1.5885,0,-1.5182,-1.5207,-1.5254,-1.531,-1.5349,-1.5395,-1.5443,-1.5463,-1.5524,-1.5558,-1.561,-1.5644,-1.5711,-1.5762,-1.5817,-1.585,-1.5877,-1.5883,-1.5888,-1.5876,-1.5858,-1.5868,-1.5865,-1.5882,-1.5882,-1.5883,-1.5883,-1.5883,-1.5172,-1.5201,-1.526,-1.5311,-1.5353,-1.5397,-1.5428,-1.5472,-1.5517,-1.5577,-1.5605,-1.5656,-1.5709,-1.5786,-1.5819,-1.5859,-1.5866,-1.5873,-1.5875,-1.5876,-1.5874,-1.5852,-1.5869,-1.5869,-1.5869,-1.5869,-1.5869,0,-1.5173,-1.5214,-1.5261,-1.5327,-1.5367,-1.5391,-1.5445,-1.5476,-1.5522,-1.557,-1.5614,-1.5672,-1.5722,-1.5774,-1.5826,-1.5848,-1.5861,-1.5859,-1.5858,-1.5866,-1.5864,-1.5855,-1.5848,-1.5848,-1.5848,-1.5848,-1.5848,-1.5848,-1.5178,-1.5228,-1.526,-1.533,-1.537,-1.5423,-1.5451,-1.5491,-1.553,-1.5595,-1.5637,-1.5672,-1.5721,-1.5778,-1.5823,-1.5837,-1.5854,-1.5849,-1.5866,-1.5864,-1.5866,-1.5867,-1.5859,-1.5852,-1.5852,-1.5865,-1.5865,-1.5865]},{"header":{"parameterUnit":"m.s-1","parameterCategory":1,"la1":30.2991,"la2":30.254,"lo1":-89.0895,"lo2":-89.0444,"dy":0.0017,"dx":0.0017,"nx":28,"ny":28,"refTime":"2025-07-15T21:00:00:Z","depth":0,"parameterNumber":3,"parameterNumberName":"V-component_of_WINDS"},"data":[0,0,0,0,0,0,0,0,0,0,0,0,0,0,0,0,0,0,0,0,0,0,0,0,0,0,0,0,0,0,0,0,0,0,0,0,0,0,0,0,0,0,0,0,0,0,0,0,0,0,0,0,0,0,0,0,0,0,0.9393,0.9394,0,0.9425,0.9425,0.9425,0.9425,0.9425,0.9424,0.9424,0.9455,0.9456,0.9457,0,0,0,0,0,0,0,0,0,0,0,0,0,0.9332,0.9333,0.9393,0.9394,0.9394,0.9425,0.9425,0.9426,0.9425,0.9425,0.9424,0.9424,0.9454,0.9456,0.9457,0,0,0,0,0,0,0,0,0,0,0,0,0,0.936,0.9333,0.9393,0.9398,0.9399,0.9425,0.9425,0.9426,0.9425,0.9425,0.9424,0.9424,0.9454,0.9456,0.9457,0.9481,0,0,0.9463,0.9464,0,0,0,0,0,0,0,0,0.9359,0.9363,0.9397,0.9398,0.9398,0.9421,0.9415,0.9444,0.9426,0.9415,0.9424,0.9423,0.9444,0.9446,0.9454,0.9482,0.9483,0.9463,0.9464,0.9465,0.9465,0,0,0,0,0,0,0,0.9357,0.9361,0.9406,0.9397,0.9398,0.9398,0.9401,0.942,0.9432,0.9416,0.9416,0.942,0.9444,0.9452,0.9454,0.9484,0.9463,0.9465,0.9466,0.9466,0.9532,0.9533,0,0,0,0,0,0,0.9354,0.936,0.9405,0.9407,0.9377,0.9399,0.9403,0.9414,0.9432,0.9435,0.942,0.942,0.9449,0.9452,0.9455,0.9483,0.9465,0.9467,0.9468,0.9532,0.9533,0.9533,0,0,0,0,0,0,0.9353,0.9358,0.9403,0.9383,0.9389,0.9401,0.9413,0.9415,0.9423,0.9436,0.9438,0.9426,0.9449,0.9453,0.9474,0.9484,0.9467,0.9469,0.9531,0.9532,0.9533,0.9539,0,0,0,0,0,0,0.9351,0.9358,0.9367,0.9383,0.939,0.9422,0.9414,0.9416,0.9426,0.9425,0.9441,0.9444,0.9449,0.9472,0.9476,0.9486,0.947,0.953,0.9531,0.9533,0.9538,0.954,0.9542,0,0,0,0,0,0.9349,0.9367,0.9367,0.9373,0.9402,0.9423,0.9427,0.9432,0.9427,0.9436,0.9444,0.9443,0.9483,0.9474,0.9479,0.949,0.953,0.9531,0.9533,0.9537,0.954,0.9542,0,0,0,0,0,0,0.9351,0.937,0.937,0.9394,0.9407,0.9423,0.9435,0.9435,0.9449,0.9448,0.9455,0.9458,0.9479,0.9487,0.9477,0.9513,0.9505,0.9508,0.9507,0.951,0.9512,0.9509,0.9472,0,0,0,0,0,0.9355,0.9371,0.9386,0.9406,0.9412,0.9422,0.9432,0.9435,0.9448,0.9454,0.9464,0.9476,0.9491,0.9501,0.9516,0.954,0.9543,0.955,0.9552,0.9553,0.9555,0.9567,0.957,0.9538,0.9538,0.9538,0,0,0.9362,0.9374,0.9384,0.9407,0.9417,0.9433,0.9427,0.9444,0.9455,0.9456,0.9477,0.9485,0.9499,0.9522,0.9532,0.9528,0.9565,0.9555,0.9556,0.9557,0.9569,0.9572,0.9575,0.9539,0.9539,0.9539,0,0,0.9383,0.9394,0.9412,0.9422,0.9438,0.9444,0.9449,0.9464,0.947,0.9491,0.9491,0.9505,0.9531,0.9541,0.955,0.9575,0.9574,0.9579,0.9589,0.9601,0.9604,0.9606,0.9614,0.9617,0.9581,0.9581,0.9581,0,0.939,0.9414,0.942,0.9437,0.9447,0.9449,0.9466,0.9476,0.9496,0.9502,0.9498,0.9531,0.9541,0.9565,0.9571,0.9579,0.9583,0.9577,0.9603,0.9605,0.9607,0.9615,0.9618,0.9582,0.9582,0.9582,0.9582,0,0.9421,0.9437,0.945,0.9469,0.948,0.9497,0.9506,0.9517,0.9519,0.9526,0.9547,0.9559,0.9576,0.9582,0.9585,0.9607,0.9604,0.9602,0.9594,0.9611,0.9618,0.9621,0.9582,0.9582,0.9582,0.9582,0,0,0.9443,0.9466,0.947,0.9479,0.9496,0.9509,0.9526,0.9543,0.9552,0.9565,0.9579,0.9601,0.9599,0.9609,0.9612,0.9623,0.9641,0.9619,0.9619,0.9622,0.9665,0.9666,0.967,0.9641,0.9642,0.9642,0.9664,0,0.9465,0.9496,0.9502,0.9528,0.9543,0.9545,0.956,0.9572,0.9579,0.9593,0.96,0.9616,0.9612,0.9617,0.9628,0.9636,0.9649,0.9635,0.9653,0.9654,0.9648,0.9674,0.9675,0.9695,0.9667,0.9667,0.9668,0,0.9495,0.9509,0.9537,0.9552,0.9558,0.9572,0.9587,0.9601,0.9614,0.9618,0.9629,0.9632,0.9649,0.9641,0.9665,0.9655,0.9663,0.9668,0.9669,0.967,0.9661,0.9674,0.9701,0.9704,0.9672,0.9672,0.9671,0,0.9507,0.9534,0.9553,0.9561,0.9579,0.9588,0.9596,0.9609,0.9619,0.9633,0.9639,0.9654,0.9663,0.9675,0.9681,0.9675,0.9704,0.9697,0.9707,0.9707,0.9712,0.9712,0.974,0.9719,0.9719,0.9719,0.9719,0,0.9531,0.9547,0.9559,0.9571,0.959,0.9597,0.9615,0.9623,0.9634,0.9648,0.9651,0.9663,0.9671,0.9685,0.969,0.9708,0.9712,0.9716,0.9717,0.9715,0.9714,0.9719,0.9718,0.972,0.972,0.972,0.9719,0,0.9547,0.9556,0.9577,0.9593,0.9598,0.961,0.9624,0.9635,0.9642,0.9659,0.9663,0.9674,0.969,0.9698,0.9718,0.9722,0.9742,0.9743,0.9737,0.9738,0.9747,0.9746,0.9779,0.9783,0.976,0.9761,0.9761,0,0.9561,0.9574,0.9591,0.96,0.9608,0.9623,0.9633,0.964,0.965,0.9667,0.9676,0.9692,0.9706,0.9731,0.974,0.9756,0.9756,0.9767,0.9758,0.9756,0.9755,0.9754,0.9755,0.9768,0.9768,0.9768,0.9768,0,0.9584,0.9587,0.9602,0.9617,0.9629,0.9642,0.9654,0.9661,0.9671,0.9682,0.9699,0.9709,0.9729,0.9745,0.9761,0.9769,0.977,0.9771,0.9774,0.9772,0.9768,0.9769,0.974,0.977,0.977,0.977,0.977,0.9769,0.9599,0.961,0.9623,0.9639,0.9649,0.9661,0.9672,0.9681,0.9695,0.9712,0.9716,0.9733,0.9746,0.9767,0.9776,0.9789,0.9787,0.9791,0.9792,0.9793,0.9793,0.9766,0.9792,0.9792,0.9792,0.9792,0.9792,0,0.9621,0.963,0.9644,0.9661,0.9673,0.9674,0.9688,0.9698,0.9713,0.9725,0.9738,0.9757,0.9772,0.9783,0.9799,0.9807,0.9808,0.9811,0.981,0.9812,0.9795,0.979,0.981,0.981,0.981,0.981,0.981,0.981,0.9634,0.9652,0.9658,0.9681,0.969,0.9707,0.9715,0.9725,0.9735,0.9756,0.9768,0.9776,0.9787,0.9804,0.9818,0.9821,0.9826,0.9828,0.9831,0.9815,0.9813,0.9811,0.9807,0.983,0.983,0.9847,0.9847,0.9847]}]]